Natchez, MS

5:42 AM CST on November 13, 2019 (GMT -0600)
Hardy-Anders-Adams County

Weather History for KHEZ - September, 2019

Change the Weather History Date:

Tuesday, September 17, 2019

  Actual Average Record
Temperature  
Mean Temperature 82 °F -  
Max Temperature 93 °F 87 °F 98 °F (1986)
Min Temperature 70 °F 66 °F 45 °F (1961)
Cooling Degree Days 16    
Growing Degree Days 32 (Base 50)    
Moisture  
Dew Point 70 °F    
Average Humidity 70    
Maximum Humidity 97    
Minimum Humidity 43    
Precipitation  
Precipitation 0.00 in - - ()
Sea Level Pressure  
Sea Level Pressure 30.00 in    
Wind  
Wind Speed 3 mph (SE)    
Max Wind Speed 10 mph    
Max Gust Speed -    
Visibility 10 miles    
Events      
Averages and records for this station are not official NWS values.
T = Trace of Precipitation, MM = Missing Value Source: NWS Daily Summary

Daily Weather History Graph

Daily Weather History Graph

Search for Another Location

Airport or City:

Astronomy

Sep. 17, 2019 Rise Set
Actual Time 6:50 AM CDT 7:08 PM CDT
Civil Twilight 6:25 AM CDT 7:32 PM CDT
Nautical Twilight 5:57 AM CDT 8:01 PM CDT
Astronomical Twilight 5:28 AM CDT 8:30 PM CDT
Moon 9:23 PM CDT (9/17) 9:45 AM CDT (9/17)
Length of Visible Light 13h 06m
Length of Day
12h 18m
Waning Gibbous, 89% of the Moon is Illuminated
Sep 17
Waning Gibbous
Sep 21
Last Quarter
Sep 28
New
Oct 5
First Quarter
Oct 13
Full

Hourly Weather History & Observations

Time (CDT) Temp. Heat Index Dew Point Humidity Pressure Visibility Wind Dir Wind Speed Gust Speed Precip Events Conditions
12:56 AM 75.9 °F - 73.0 °F 91% 29.99 in 10.0 mi Calm Calm - N/A   Clear
1:56 AM 73.0 °F - 72.0 °F 96% 29.99 in 10.0 mi Calm Calm - N/A   Clear
2:56 AM 73.0 °F - 71.1 °F 93% 29.99 in 10.0 mi Calm Calm - N/A   Clear
3:56 AM 71.1 °F - 70.0 °F 96% 29.99 in 10.0 mi Calm Calm - N/A   Clear
4:56 AM 71.1 °F - 70.0 °F 96% 29.99 in 10.0 mi Calm Calm - N/A   Clear
5:56 AM 70.0 °F - 69.1 °F 97% 30.01 in 10.0 mi Calm Calm - N/A   Clear
6:56 AM 70.0 °F - 69.1 °F 97% 30.03 in 10.0 mi Calm Calm - N/A   Clear
7:56 AM 73.9 °F - 73.0 °F 97% 30.04 in 10.0 mi North 3.5 mph - N/A   Clear
8:56 AM 81.0 °F 85.8 °F 73.0 °F 77% 30.05 in 10.0 mi ESE 5.8 mph - N/A   Clear
9:30 AM 82.4 °F 88.2 °F 73.4 °F 74% 30.06 in 10.0 mi ESE 4.6 mph - N/A   Partly Cloudy
9:56 AM 84.9 °F 92.1 °F 73.9 °F 69% 30.06 in 10.0 mi East 5.8 mph - N/A   Partly Cloudy
10:56 AM 88.0 °F 94.7 °F 72.0 °F 59% 30.06 in 10.0 mi SSE 8.1 mph - N/A   Clear
11:56 AM 91.0 °F 96.6 °F 70.0 °F 50% 30.04 in 10.0 mi East 9.2 mph - N/A   Clear
12:56 PM 91.9 °F 96.9 °F 69.1 °F 47% 30.02 in 10.0 mi SSE 5.8 mph - N/A   Partly Cloudy
1:56 PM 93.9 °F 99.1 °F 69.1 °F 44% 30.00 in 7.0 mi SSE 10.4 mph - N/A   Scattered Clouds
2:29 PM 93.2 °F 98.8 °F 69.8 °F 46% 29.99 in 10.0 mi ESE 9.2 mph - N/A   Mostly Cloudy
2:56 PM 93.9 °F 98.6 °F 68.0 °F 43% 29.98 in 10.0 mi South 9.2 mph - N/A   Mostly Cloudy
3:56 PM 93.0 °F 97.4 °F 68.0 °F 44% 29.95 in 10.0 mi ESE 8.1 mph - N/A   Partly Cloudy
4:56 PM 93.9 °F 98.6 °F 68.0 °F 43% 29.95 in 9.0 mi SE 10.4 mph - N/A   Partly Cloudy
5:46 PM 91.4 °F 95.4 °F 68.0 °F 46% 29.95 in 10.0 mi SSE 9.2 mph - N/A   Partly Cloudy
5:56 PM 91.9 °F 95.9 °F 68.0 °F 45% 29.94 in 10.0 mi SSE 8.1 mph - N/A   Partly Cloudy
6:56 PM 88.0 °F 92.1 °F 69.1 °F 53% 29.95 in 10.0 mi South 8.1 mph - N/A   Clear
7:56 PM 82.9 °F 87.5 °F 71.1 °F 67% 29.97 in 10.0 mi SSW 4.6 mph - N/A   Clear
8:56 PM 80.1 °F 83.6 °F 71.1 °F 74% 29.99 in 10.0 mi South 6.9 mph - N/A   Clear
9:56 PM 78.1 °F - 71.1 °F 79% 29.99 in 10.0 mi Calm Calm - N/A   Clear
10:56 PM 77.0 °F - 72.0 °F 84% 29.98 in 10.0 mi Calm Calm - N/A   Clear
11:56 PM 75.0 °F - 71.1 °F 87% 29.98 in 10.0 mi Calm Calm - N/A   Clear